User: anonymous   Login
Location: Bonny Doon Airfield
(37.0704°N, 122.1252°W)
Time: 06:23:08
(UTC-07:00)
Language:

BREEZE M DEB (TANK) - Orbit

View from above orbital plane
View from above orbital plane
View from above satellite
View from above satellite

Ground track
Ground track

The orbit data is extracted from the following two-line orbital elements,

1 33437U 08057B   17264.85430319 +.00000744 +00000-0 +18973-3 0  9999
2 33437 049.5245 162.8546 4988328 146.2502 258.9763 05.60537847179265
Epoch (UTC): 21 September 2017 20:30:11
Eccentricity: 0.4988328
inclination: 49.5245°
perigee height: 331 km
apogee height: 13686 km
right ascension of ascending node: 162.8546°
argument of perigee: 146.2502°
revolutions per day: 5.60537847
mean anomaly at epoch: 258.9763°
orbit number at epoch: 17926

The dashed part of the orbit path shows where the satellite is in the earth's shadow,  

DLR